FREGAT DEB, 40078

Orbit data source: Space-Track

FREGAT DEB, 40078 is space debris in SSO originally from a launch on Tue, 08 Jul 2014 UTC launched from the Tyuratam Missile And Space Complex (TTMTR). Debris objects in space refer to the collection of defunct objects orbiting the Earth. Examples of debris include non-operational satellites, rocket bodies, and fragments generated from explosions, collisions, or faulty payload assembly.

Loading next visibility...
Identifier
40078, 2014-037K
Orbit
SSO
Last TLE update
20 hours ago
Origin
Manufacturer
Lavochkin
Mission
Spacecraft
Bus & Motor
Unknown
Mass
Unknown
Launch date (UTC)
2014-07-08 (11 years ago)
Launch vehicle
Unknown
Launch site
Tyuratam Missile And Space Complex (TTMTR)
Object type
Payload
Rocket body
Debris
Shape & HBR
Irr + 1 Truss, 3 m
Radar Cross Section
7.500 m², Large (>1 m²)

Expand to show TLE details & history

TLE from 20 hours ago
0 FREGAT DEB
1 40078U 14037K   25128.57992851  .00000609  00000-0  13673-3 0  9996
2 40078  98.0255 116.1601 0130355 244.3294 114.4393 14.55024529574368
Epoch: 2025-05-08T13:55Z
Definitive object data (Epoch: 2025-05-08T13:55:05.823Z)
Latitude
-0.00005°
Longitude
40.73746°
Altitude
751.491 km
Speed
7.458 km/s
True Right ascension
07h 44m 38s
True Declination
0° 00' 00"
Sunlit
Object was in daylight at TLE epoch
Visualization TLE readout
Latitude
-55.24031°
Longitude
53.17818°
Altitude
686.929 km
Speed
7.535 km/s
Apparent Right ascension
06h 56m 53s
Apparent Declination
-49° 56' 38"
Sunlit
Object is in daylight
Visualization observer readout
Local Sidereal Time
17:37:21
Azimuth
227.758° WSW
Elevation
-72.805°
Doppler factor
1
Orbital elements
Apogee altitude
798.714 km
Perigee altitude
614.014 km
Semi-major axis
7,084.501 km
Eccentricity
0.0130355
Inclination
98.0255°
RAAN
116.1601°
Arg. of periapsis
244.3294°
True anomaly
115.78998°
Mean anomaly
114.4393°
Eccentric anomaly
115.11556°
Mean motion
3.63981 °/min
BSTAR
0.00013673
Orbital period
98.91 mins
Loading maneuver chart data...
Loading SW <> Apogee altitude chart data...
Loading historical data...
Loading historical data...
Loading historical data...
Loading historical data...
Loading historical data...
Loading historical data...
Loading historical data...

FREGAT DEB Visibility forecast

Observer location: undefined°, undefined°

Span
Click to sort rows by Start time (UTC) header in descending order
Start Az.
Max El. time (UTC)
Max El. Az.
Max El.
End time (UTC)
End Az.
9 mins2025-05-09 11:57:01.860Z14.432° NNE2025-05-09 12:02:01.860Z166.768° S43.903°2025-05-09 12:06:01.860Z190.947° SSW
9 mins2025-05-09 23:03:01.860Z162.001° S2025-05-09 23:07:01.860Z64.651° ENE44.753°2025-05-09 23:12:01.860Z349.236° N
|